Bozeman, MT

1:25 AM MDT on May 25, 2017 (GMT -0600)
Gallatin

Weather History for KBZN - May, 2013

Change the Weather History Date:

Friday, May 24, 2013

  Actual Average Record
Temperature  
Mean Temperature 52 °F 56 °F  
Max Temperature 67 °F 71 °F 87 °F (1988)
Min Temperature 37 °F 41 °F 28 °F (1989)
Degree Days  
Heating Degree Days 13 9  
Month to date heating degree days 304 297  
Since 1 July heating degree days 7763 7358  
Cooling Degree Days 0 0  
Month to date cooling degree days 2 0  
Year to date cooling degree days 2 0  
Moisture  
Dew Point 31 °F    
Average Humidity 55    
Maximum Humidity 92    
Minimum Humidity 18    
Precipitation  
Precipitation 0.15 in 0.09 in 0.99 in (1997)
Month to date precipitation 2.07 1.79  
Year to date precipitation 3.26 5.24  
Snow  
Snow 0.00 in 0.10 in T in (1975)
Month to date snowfall 1.8 2.2  
Since 1 July snowfall 24.6 39.7  
Snow Depth 0.00 in    
Sea Level Pressure  
Sea Level Pressure 29.93 in    
Wind  
Wind Speed 10 mph (SW)    
Max Wind Speed 25 mph    
Max Gust Speed 33 mph    
Visibility 10 miles    
Events Rain , Thunderstorm    
T = Trace of Precipitation, MM = Missing Value Source: NWS Daily Summary

Daily Weather History Graph

Daily Weather History Graph

Search for Another Location

Airport or City:

Trip Planner

Search our weather history database for the weather conditions in past years. The results will help you decide how hot, cold, wet, or windy it might be!

Date:

Astronomy

May. 24, 2013 Rise Set
Actual Time 5:43 AM MDT 8:59 PM MDT
Civil Twilight 5:07 AM MDT 9:36 PM MDT
Nautical Twilight 4:20 AM MDT 10:23 PM MDT
Astronomical Twilight 3:21 AM MDT 11:22 PM MDT
Moon 8:44 PM MDT (5/24) 5:21 AM MDT (5/24)
Length of Visible Light 16h 28m
Length of Day
15h 16m
Full, 100% of the Moon is Illuminated
May 24
Full
May 24
Full
May 31
Last Quarter
Jun 8
New
Jun 16
First Quarter

Hourly Weather History & Observations

Time (MDT) Temp. Windchill Dew Point Humidity Pressure Visibility Wind Dir Wind Speed Gust Speed Precip Events Conditions
12:27 AM 41.0 °F 33.9 °F 37.4 °F 87% 29.91 in 4.0 mi West 12.7 mph - 0.00 in Rain Light Rain
12:56 AM 41.0 °F 32.5 °F 37.9 °F 89% 29.93 in 6.0 mi WSW 17.3 mph 23.0 mph 0.02 in Rain Rain
1:46 AM 41.0 °F 38.0 °F 37.4 °F 87% 29.93 in 10.0 mi East 4.6 mph - 0.10 in Rain Light Rain
1:56 AM 41.0 °F 37.1 °F 37.9 °F 89% 29.93 in 10.0 mi ENE 5.8 mph - 0.10 in   Overcast
2:56 AM 41.0 °F 36.4 °F 37.0 °F 86% 29.88 in 10.0 mi WSW 6.9 mph - N/A   Overcast
3:56 AM 39.9 °F 35.8 °F 37.0 °F 89% 29.92 in 10.0 mi WNW 5.8 mph - N/A   Overcast
4:37 AM 39.2 °F 35.9 °F 37.4 °F 93% 29.92 in 10.0 mi ESE 4.6 mph - N/A   Mostly Cloudy
4:56 AM 39.0 °F 35.7 °F 37.0 °F 93% 29.94 in 10.0 mi South 4.6 mph - N/A   Mostly Cloudy
5:15 AM 39.2 °F 30.5 °F 35.6 °F 87% 29.95 in 10.0 mi South 16.1 mph 26.5 mph 0.03 in Rain , Thunderstorm Light Rain
5:23 AM 39.2 °F 30.8 °F 35.6 °F 87% 29.96 in 10.0 mi SSW 15.0 mph - 0.03 in Rain , Thunderstorm Light Rain
5:29 AM 39.2 °F 30.8 °F 35.6 °F 87% 29.97 in 10.0 mi WSW 15.0 mph - 0.04 in Rain Light Rain
5:34 AM 37.4 °F 28.5 °F 35.6 °F 93% 29.98 in 8.0 mi WSW 15.0 mph 27.6 mph 0.05 in Rain Light Rain
5:43 AM 37.4 °F 29.3 °F 33.8 °F 87% 30.00 in 9.0 mi WSW 12.7 mph 21.9 mph 0.05 in Rain Light Rain
5:56 AM 37.0 °F 28.9 °F 34.0 °F 89% 30.02 in 10.0 mi West 12.7 mph 19.6 mph 0.05 in   Overcast
6:21 AM 37.4 °F 32.1 °F 33.8 °F 87% 30.02 in 10.0 mi SSW 6.9 mph - N/A   Overcast
6:56 AM 39.0 °F 34.8 °F 34.0 °F 82% 30.01 in 10.0 mi SW 5.8 mph - N/A   Mostly Cloudy
7:56 AM 44.1 °F 40.8 °F 35.1 °F 71% 29.99 in 10.0 mi East 5.8 mph - N/A   Mostly Cloudy
8:56 AM 46.0 °F 44.8 °F 34.0 °F 63% 30.00 in 10.0 mi Variable 3.5 mph - N/A   Clear
9:56 AM 50.0 °F - 36.0 °F 59% 29.98 in 10.0 mi North 4.6 mph - N/A   Clear
10:56 AM 55.9 °F - 28.0 °F 34% 29.96 in 10.0 mi WSW 18.4 mph 24.2 mph N/A   Clear
11:56 AM 57.9 °F - 26.1 °F 30% 29.94 in 10.0 mi WSW 19.6 mph 24.2 mph N/A   Partly Cloudy
12:56 PM 59.0 °F - 26.1 °F 28% 29.94 in 10.0 mi WSW 12.7 mph 20.7 mph N/A   Partly Cloudy
1:56 PM 59.0 °F - 26.1 °F 28% 29.92 in 10.0 mi SSW 9.2 mph - N/A   Overcast
2:56 PM 64.0 °F - 24.1 °F 22% 29.89 in 10.0 mi WSW 15.0 mph 20.7 mph N/A   Scattered Clouds
3:56 PM 63.0 °F - 19.9 °F 19% 29.87 in 10.0 mi SW 18.4 mph 27.6 mph N/A   Mostly Cloudy
4:56 PM 64.9 °F - 24.1 °F 21% 29.86 in 10.0 mi SW 15.0 mph - N/A   Mostly Cloudy
5:56 PM 63.0 °F - 19.0 °F 18% 29.87 in 10.0 mi SSW 13.8 mph - N/A   Mostly Cloudy
6:56 PM 64.0 °F - 19.9 °F 18% 29.86 in 10.0 mi SW 16.1 mph 26.5 mph N/A   Mostly Cloudy
7:56 PM 63.0 °F - 19.9 °F 19% 29.86 in 10.0 mi SSW 10.4 mph - N/A   Mostly Cloudy
8:56 PM 60.1 °F - 21.0 °F 22% 29.87 in 10.0 mi SSW 6.9 mph - N/A   Scattered Clouds
9:56 PM 48.9 °F - 33.1 °F 54% 29.91 in 10.0 mi SE 11.5 mph - N/A   Clear
10:56 PM 51.1 °F - 30.9 °F 46% 29.89 in 10.0 mi SSE 12.7 mph - N/A   Mostly Cloudy
11:56 PM 50.0 °F - 28.9 °F 44% 29.89 in 10.0 mi Calm Calm - N/A   Scattered Clouds